ORBCOMM FM20 [+]

Last updated on Fri Dec 29 2023 00:02:53 GMT+0000 (Coordinated Universal Time)

1 25416U 98046D 23361.66366574 .00001279 00000+0 49678-3 0 9998 2 25416 44.9925 201.5787 0000827 84.6493 275.4449 14.34723678327006
UTC large
Height (km)
Speed (km/s)
/
Latitude / Longitude
Inclination (degrees)
Orbital Period (minutes)
Azimuth
Elevation
Range (km)
Doppler Factor

Next 0 passes for location: London (51.5072 / 0.1276)

Sorry there are no passes over London.
ORBCOMM FM20 [+]